Погода в Сало

Финляндия     60°23′10″N   23°07′19″E
темп.,
°C
ветер,
м/с
пор.,
м/с
влажн.,
%
обл.,
%
осадки,
мм/ч
давл.,
гПа
погр.,
м
27 ноября, сб
сб2723:00−4всв2567100 0.0 1002326
02:00−4всв25725 0.0 1004264
05:00−5св26725 0.0 1004262
08:00−5св387360 0.0 1006318
11:00−5всв31064100 0.0 1006371
14:00−4св3954100 0.0 1006444
17:00−5св41160100 0.0 1006423
20:00−5св41264100 0.0 1006466
28 ноября, вс
вс2823:00−5св41263100 0.0 1005477
02:00−5св41168100 0.0 1005499
05:00−5св41171100 0.0 1004489
08:00−5св41170100 0.0 1005513
11:00−4св41161100 0.0 1005476
14:00−4св3958100 0.0 1006495
17:00−4всв3865100 0.0 1007563
20:00−5всв3769100 0.0 1008477
29 ноября, пн
пн2923:00−5всв3871100 0.0 1008480
02:00−6всв38755 0.0 1008366
05:00−6всв397618 0.0 1007340
08:00−6св397891 0.0 1007343
11:00−6св4977100 0.0 1006354
14:00−5св4875100 0.0 1004427
17:00−6св4978100 0.0 1002520
20:00−6ссв4977100 0.0 1000625
30 ноября, вт
вт3023:00−6ссв41076100 0.0 998631
02:00−6с4975100 0.0 995588
05:00−7с497388 0.0 993576
08:00−8с41078100 0.0 992561
11:00−8ссз4107473 0.0 991483
14:00−8ссз4106721 0.0 990486
17:00−9ссз4117014 0.0 991498
20:00−9ссз411765 0.0 992503
1 декабря, ср
ср123:00−9ссз412765 0.0 992479
02:00−8сз312735 0.0 994463
05:00−8сз288199 0.0 995241
08:00−8зсз229016 0.0 99546
11:00−7з11845 0.0 99645
14:00−6ююз117745 0.0 99618
17:00−7юв1176100 0.0 99519
20:00−6в2494100 0.3 993126